This demonstration page uses our WeatherBlox Daily Observations layout. Learn more.

Left ArrowRight Arrow

Hourly Observations for June 17, 2021

Temp ( °F °C ) Dew Point ( °F °C ) Humidity (%) Winds ( mph kmh ) Pressure ( in mb ) Visibility ( mi km ) Precip ( " mm )
12:53 am 00:53 Clear 67 19.4 57 13.9 71 71 Calm 30.00 1016 10 16 0.00 0.00
1:53 am 01:53 Clear 63 17.2 57 13.9 81 81 Calm 30.00 1016 10 16 0.00 0.00
2:53 am 02:53 Clear 66 18.9 57 13.9 73 73 Calm 29.99 1016 10 16 0.00 0.00
3:53 am 03:53 Clear 63 17.2 58 14.4 84 84 Calm 29.99 1016 10 16 0.00 0.00
4:53 am 04:53 Clear 60 15.6 56 13.3 86 86 NE 3 6 29.99 1016 10 16 0.00 0.00
5:53 am 05:53 Clear 59 15 56 13.3 90 90 Calm 30.00 1016 10 16 0.00 0.00
6:53 am 06:53 Sunny 61 16.1 58 14.4 90 90 Calm 30.02 1017 10 16 0.00 0.00
7:53 am 07:53 Sunny 65 18.3 59 15 81 81 Calm 30.03 1017 10 16 0.00 0.00
8:53 am 08:53 Sunny 71 21.7 59 15 66 66 NNE 5 7 30.04 1017 10 16 0.00 0.00
9:53 am 09:53 Sunny 77 25 58 14.4 52 52 E 7 11 30.04 1017 10 16 0.00 0.00
10:53 am 10:53 Sunny 79 26.1 53 11.7 41 41 ENE 7 11 30.04 1017 10 16 0.00 0.00
11:53 am 11:53 Sunny 81 27.2 53 11.7 38 38 Calm 30.04 1017 10 16 0.00 0.00
12:53 pm 12:53 Sunny 84 28.9 52 11.1 33 33 NNE 6 9 30.04 1017 10 16 0.00 0.00
1:53 pm 13:53 Sunny 85 29.4 51 10.6 31 31 VRB 3 6 30.02 1017 10 16 0.00 0.00
2:53 pm 14:53 Sunny 86 30 50 10 29 29 VRB 7 11 30.01 1016 10 16 0.00 0.00
3:53 pm 15:53 Sunny 87 30.6 49 9.4 27 27 NW 5 7 29.99 1016 10 16 0.00 0.00
4:53 pm 16:53 Sunny 88 31.1 51 10.6 28 28 NW 7 11 29.99 1016 10 16 0.00 0.00
5:53 pm 17:53 Sunny 87 30.6 49 9.4 27 27 NW 6 9 29.98 1015 10 16 0.00 0.00
6:53 pm 18:53 Sunny 88 31.1 50 10 27 27 Calm 29.99 1016 10 16 0.00 0.00
7:53 pm 19:53 Sunny 86 30 51 10.6 30 30 WSW 6 9 29.99 1016 10 16 0.00 0.00
8:53 pm 20:53 Clear 79 26.1 56 13.3 45 45 Calm 30.00 1016 10 16 0.00 0.00
9:53 pm 21:53 Clear 75 23.9 60 15.6 60 60 NE 3 6 30.01 1016 10 16 0.00 0.00
10:53 pm 22:53 Clear 72 22.2 60 15.6 66 66 Calm 30.04 1017 10 16 0.00 0.00
11:53 pm 23:53 Clear 68 20 61 16.1 78 78 Calm 30.06 1018 10 16 0.00 0.00

Powered by AerisWeather